Regional Weather Roundup
Issued by NWS

Home | Current Version | Previous Version | Text Only | Print | Product List | Glossary On
Versions: 1 2 3 4 5 6 7 8 9 10 11 12 13 14 15 16 17 18 19 20 21 22 23 24 25 26 27 28 29 30 31 32 33 34 35 36 37 38 39 40 41 42 43 44 45 46 47 48 49 50
000
ASUS45 KABQ 242310
RWRNM
NEW MEXICO REGIONAL WEATHER ROUNDUP
NATIONAL WEATHER SERVICE ALBUQUERQUE NM
500 PM MDT SUN MAY 24 2015

NOTE: "FAIR" MEANS FEW OR NO CLOUDS BELOW 12,000 FEET AGL WITH NO
       SIGNIFICANT WEATHER OR OBSTRUCTIONS TO VISION.

      THIS PRODUCT IS RELEASED AS TWO VERSIONS.  ONE VERSION NEAR
      THE TOP OF THE HOUR CONTAINING PRELIMINARY DATA FROM ALBUQUERQUE
      AND OTHER STATIONS.  A FINAL VERSION WITH ADDITIONAL DATA IS
      ISSUED ABOUT 10 MINUTES AFTER THE HOUR.

NMZ501-503-504-510>518-250000-
NORTHWEST PLATEAU/NORTHCENTRAL MOUNTAINS

CITY           SKY/WX    TMP DP  RH WIND       PRES   REMARKS
FARMINGTON     MOSUNNY   61  37  41 W14G22    29.92F
LOS ALAMOS     PTSUNNY   57  34  42 NW7       29.97F
SANTA FE       CLOUDY    61  34  36 W8        29.93F
TAOS           PTSUNNY   52  34  50 NW14      29.97S
ANGEL FIRE     FAIR      50  35  56 SW20G30   29.99S

$$
NMZ402-403-502-505>509-250000-
WESTCENTRAL MOUNTAINS/SOUTHWEST MOUNTAINS

CITY           SKY/WX    TMP DP  RH WIND       PRES   REMARKS
GALLUP         PTSUNNY   55  38  52 W7        30.00F
GRANTS         MOSUNNY   62  33  33 NW16G26   29.98S
SILVER CITY      N/A     70  21  16 W9G20     29.95F

$$
NMZ407-409-411-412-250000-
SOUTHERN DESERTS

CITY           SKY/WX    TMP DP  RH WIND       PRES   REMARKS
LORDSBURG      MOCLDY    73  25  16 W5        29.87F
DEMING         MOSUNNY   77  23  13 W9        29.87F
LAS CRUCES     MOSUNNY   76  21  12 W16G25    29.88F
HOLLOMAN AFB   SUNNY     79  19  11 W13G25    29.83F
ALAMOGORDO     SUNNY     79  19  11 W9G23     29.86F
T OR C         MOSUNNY   77  16  10 SW12G20   29.82F

$$
NMZ519>523-250000-
CENTRAL VALLEYS/CENTRAL HIGHLANDS

CITY           SKY/WX    TMP DP  RH WIND       PRES   REMARKS
ALBUQUERQUE    MOSUNNY   68  38  33 NE16G25   29.90F
DOUBLE EAGLE   MOSUNNY   66  39  37 NW14G20   29.92F
MORIARTY ARPT  FAIR      66  33  29 NW12G21   29.93F
CLINES CORNERS MOSUNNY   61  36  39 NW21      29.94R
BELEN          CLOUDY    69  35  28 NE16      29.87S
SOCORRO        FAIR      72  24  16 S10G20    29.83F

$$
NMZ524>526-539-540-250000-
SOUTHCENTRAL MOUNTAINS

CITY           SKY/WX    TMP DP  RH WIND       PRES   REMARKS
RUIDOSO        MOSUNNY   66  23  19 SW16      29.98S

$$
NMZ527>531-250000-
NORTHEAST HIGHLANDS/NORTHEAST PLAINS

CITY           SKY/WX    TMP DP  RH WIND       PRES   REMARKS
LAS VEGAS      PTSUNNY   58  36  43 W21G30    29.92R
RATON          PTSUNNY   66  29  24 W16G29    29.83S
CLAYTON        MOSUNNY   70  35  27 SW22G30   29.78S

$$
NMZ532>537-250000-
EASTCENTRAL PLAINS

CITY           SKY/WX    TMP DP  RH WIND       PRES   REMARKS
TUCUMCARI      SUNNY     79  35  20 W17G23    29.76F
CANNON AFB     SUNNY     76  34  21 SW10G22   29.82S
CLOVIS AIRPORT SUNNY     75  36  23 W18         N/A

$$
NMZ028-029-538-250000-
SOUTHEAST PLAINS

CITY           SKY/WX    TMP DP  RH WIND       PRES   REMARKS
ROSWELL        MOSUNNY   84  24  11 W10       29.76F
ARTESIA        MOSUNNY   84  25  11 SW21G32   29.79S
CARLSBAD       SUNNY     85  26  11 SW17G23   29.79F
HOBBS          SUNNY     81  30  16 S13G20    29.84F


$$


USA.gov is the U.S. government's official web portal to all federal, state and local government web resources and services.